Theta_e
331 333 335 335 334 334 333 333 334 333 333 333 333 334 334 340 342 341 342 343 342 341 340 341 341 342 343 341 341 340 332 332 334 338 338 338 337 334 333 330 330 330 329 326
333 334 334 333 333 334 334 333 333 332 333 334 333 333 334 338 338 337 339 342 339 338 340 343 343 342 342 340 338 338 332 333 336 337 336 336 336 334 331 330 330 327 323 324
334 334 332 332 333 334 334 334 333 332 332 332 334 336 336 339 338 337 337 338 338 338 344 342 342 342 341 340 339 338 336 335 335 333 333 332 332 332 333 331 329 325 321 322
331 331 330 331 331 332 334 332 331 331 332 332 334 334 334 337 340 339 337 338 338 338 343 341 341 341 340 339 338 337 335 334 333 333 333 331 334 332 329 327 327 325 319 318
330 330 330 330 330 330 330 330 330 331 331 332 333 336 335 338 338 338 338 339 338 339 342 340 341 340 339 339 339 337 336 335 335 331 331 333 330 327 327 326 322 318 318 317
330 328 329 329 331 331 331 331 330 331 332 334 334 335 334 334 337 336 337 340 338 340 342 340 341 338 336 339 339 338 335 333 331 330 326 324 325 319 322 320 319 318 316 314
330 330 331 329 331 331 331 333 334 334 335 334 336 336 336 335 336 335 338 340 340 342 341 340 340 339 339 339 339 337 336 333 328 326 324 323 321 321 323 320 317 314 312 312
330 333 332 332 333 333 334 334 335 337 336 334 332 335 337 337 336 335 338 340 341 341 339 338 339 336 335 335 335 332 328 326 325 324 324 320 318 322 319 317 312 312 313 313
334 334 333 334 334 334 333 335 335 335 333 337 334 336 336 337 337 337 339 339 340 339 338 334 332 331 331 330 329 325 323 324 325 325 325 320 319 319 316 310 308 314 313 314
334 335 330 332 335 334 335 335 334 334 337 337 333 334 338 336 335 337 338 339 339 338 333 330 329 329 328 327 325 326 325 325 324 323 324 324 321 318 314 312 315 314 314 314
336 337 335 334 335 335 335 336 336 337 335 337 337 334 336 335 335 336 337 338 338 337 331 328 326 327 327 326 325 326 325 323 323 324 324 322 320 317 313 314 315 315 313 315
339 339 339 335 334 335 336 337 337 339 338 337 341 338 336 336 335 335 336 339 338 336 330 328 325 325 326 326 325 325 326 324 324 324 323 321 317 314 313 315 316 315 315 315
337 334 338 334 336 336 335 335 336 337 339 339 339 338 334 335 335 334 336 337 338 335 331 328 325 324 326 326 326 325 325 324 324 324 323 320 317 314 315 315 316 316 316 315
334 339 340 340 339 337 338 335 335 337 341 340 337 337 337 336 336 334 335 336 336 334 332 330 327 326 326 327 326 326 326 325 324 324 321 319 318 317 316 315 316 316 317 316
339 342 339 337 335 335 335 336 334 336 337 340 337 336 337 336 334 332 333 336 333 332 333 330 329 328 327 327 327 327 326 326 324 322 320 319 318 317 317 316 316 317 317 316
337 340 337 338 334 334 335 334 336 336 334 335 336 338 330 327 330 333 333 332 328 331 332 330 329 329 329 328 327 327 325 319 318 320 319 318 318 318 317 317 317 317 317 317
338 338 339 338 336 336 337 337 333 330 331 334 336 330 325 326 323 321 326 329 331 329 331 332 332 330 329 327 325 319 319 319 320 320 319 319 318 318 318 318 318 318 318 317
338 339 338 340 338 339 336 334 330 329 331 327 326 324 324 323 323 321 321 324 323 324 325 327 327 326 321 316 316 316 320 320 320 320 320 319 318 318 318 318 316 317 319 318
335 338 338 340 335 334 334 334 335 333 330 330 331 327 324 323 324 323 321 320 322 322 323 323 321 320 321 322 322 322 321 321 320 320 317 316 315 316 317 319 318 315 316 319
335 336 339 337 336 334 336 333 332 331 333 328 328 328 327 326 327 325 322 323 323 323 323 323 322 323 323 318 317 320 320 320 321 321 320 319 319 317 318 320 319 318 316 316
336 336 336 335 335 335 333 333 332 337 333 328 327 325 324 325 325 324 323 323 323 323 322 322 322 322 319 317 320 321 320 318 316 318 321 321 321 321 320 320 320 319 319 316
335 334 334 335 337 336 333 333 336 332 326 325 324 324 324 324 323 324 323 323 323 323 322 322 322 317 316 315 315 314 315 315 315 314 315 317 317 319 320 320 321 320 320 319
337 334 337 334 339 335 334 333 331 327 326 324 325 324 325 325 325 325 324 321 319 318 316 315 314 314 315 315 315 314 313 314 313 311 310 311 311 312 313 316 318 320 319 319
336 333 335 336 335 334 332 330 326 324 325 325 324 325 326 327 324 320 318 316 314 313 312 311 310 309 307 307 306 307 307 308 306 306 305 306 306 308 309 309 310 313 314 315
335 334 335 335 334 329 327 325 325 325 325 325 326 326 325 321 319 317 315 313 311 310 309 308 307 306 303 301 300 301 300 300 299 299 301 301 300 301 302 304 303 304 307 306
334 335 336 335 333 330 328 325 324 325 326 326 323 320 319 318 316 314 312 311 310 308 306 304 303 302 300 297 296 295 294 294 295 295 296 295 294 295 296 296 297 298 297 296
Wind_Speed
11 10 10 7 7 9 9 10 10 5 3 8 13 9 8 11 11 11 10 9 6 6 5 4 1 3 4 4 5 8 11 13 9 5 3 5 5 4 3 6 10 12 9 8
7 14 13 4 11 10 11 11 11 6 1 7 16 15 15 12 12 11 11 10 9 10 8 7 7 6 7 7 9 11 13 10 8 4 4 4 5 4 5 8 6 5 6 7
15 13 1 7 14 14 16 14 11 16 17 14 15 16 10 8 12 8 7 9 9 11 10 9 9 9 9 8 9 10 8 5 5 4 1 1 1 2 1 1 1 4 8 8
11 9 8 13 13 14 17 13 17 14 16 14 4 14 16 5 10 13 13 12 12 11 11 10 10 10 8 8 8 8 5 3 1 4 1 3 2 2 3 2 2 4 8 9
12 8 10 12 15 15 16 15 15 15 17 18 16 10 11 5 7 12 12 13 13 13 12 12 10 9 9 7 7 6 4 2 2 1 2 4 5 3 1 1 4 5 8 8
17 21 8 17 15 15 12 15 18 17 15 13 10 7 11 10 11 11 10 11 14 15 13 12 10 8 7 7 6 5 4 2 1 2 7 6 2 0 1 2 2 4 6 8
15 13 10 8 14 8 7 12 12 12 11 9 5 7 12 13 8 7 10 13 15 15 13 11 9 7 8 7 6 5 4 3 6 8 5 3 2 2 2 4 5 7 6 8
14 13 2 4 7 10 11 9 10 17 13 16 17 10 5 4 3 3 5 14 14 14 12 11 8 7 6 7 7 6 5 6 6 5 3 2 6 3 5 8 8 5 6 8
12 11 2 3 7 6 7 9 7 11 18 10 13 7 8 4 2 3 9 12 13 14 14 11 8 8 8 7 8 7 6 6 4 2 0 5 8 7 9 13 10 8 11 11
6 14 13 5 6 10 12 5 10 8 10 14 12 9 8 3 6 5 9 11 13 15 15 13 9 10 10 9 8 7 6 4 2 2 4 5 7 8 11 6 8 11 14 13
7 7 14 5 13 13 7 11 6 6 7 14 14 6 2 5 9 8 8 13 15 18 16 12 10 11 10 9 7 7 5 4 5 5 6 7 6 9 9 8 9 11 14 13
5 6 13 18 10 6 9 14 15 10 14 8 12 11 6 6 6 6 3 11 16 19 16 11 10 11 10 8 7 6 7 8 8 8 7 8 11 14 10 9 11 13 13 13
3 4 10 9 6 4 7 8 9 11 10 16 14 9 6 2 4 3 4 13 16 17 13 11 10 10 9 7 6 7 8 9 9 9 9 9 12 15 11 11 13 14 13 13
1 7 10 12 15 13 14 14 11 10 9 13 12 11 14 14 10 4 6 12 14 11 12 11 10 9 8 8 8 9 10 10 10 10 10 11 12 12 13 13 14 13 13 14
3 7 9 12 14 13 13 12 10 14 14 12 17 13 13 12 6 8 10 9 8 6 11 11 10 8 8 9 9 10 10 10 10 11 11 12 13 13 13 14 14 15 15 15
1 6 9 13 3 6 9 5 9 5 10 11 9 6 11 14 10 7 6 10 13 15 10 10 10 10 9 9 9 9 8 8 11 10 11 12 12 13 14 14 15 16 16 16
2 6 7 6 5 10 1 11 8 7 11 9 9 11 14 15 19 19 17 10 3 8 8 7 8 7 6 5 6 8 6 8 9 10 11 12 13 14 15 16 16 17 17 17
4 5 3 6 7 1 4 7 8 12 8 12 10 10 14 14 14 13 8 2 7 4 1 1 1 2 1 3 5 4 6 9 11 13 13 13 15 17 17 19 21 20 19 19
2 4 3 4 2 3 6 1 4 2 3 4 8 9 13 11 1 3 2 2 5 7 7 6 5 4 4 3 3 5 7 10 12 15 18 21 21 20 19 22 25 21 23 21
3 5 6 1 4 2 5 3 3 4 6 11 8 7 8 8 3 9 5 6 7 7 7 5 4 3 3 4 7 8 10 11 12 14 18 18 18 22 23 20 24 23 23 23
5 5 7 2 4 3 3 4 5 5 6 5 5 2 3 7 9 6 7 9 8 8 7 6 5 4 5 7 7 5 8 12 16 15 16 15 15 17 18 20 20 21 20 22
4 3 3 3 4 5 5 5 4 6 6 3 3 5 8 7 6 7 8 9 10 10 9 6 3 3 5 6 6 8 10 12 14 13 13 13 13 13 14 17 18 18 19 21
4 2 4 4 3 2 2 2 3 6 5 5 6 5 6 7 9 9 9 9 10 9 7 5 5 6 7 9 10 11 13 14 15 15 15 14 14 14 14 15 13 13 14 15
5 5 4 2 6 5 5 6 6 7 6 5 7 7 8 9 8 10 10 9 8 9 9 8 8 8 9 11 12 12 15 17 17 18 18 18 19 21 20 19 16 17 13 13
4 8 6 7 4 5 7 9 10 10 10 9 11 10 10 10 10 9 9 9 8 9 8 8 8 8 10 11 13 16 17 18 18 17 16 17 17 17 18 15 16 14 11 18
6 8 6 7 4 11 13 10 11 11 11 8 9 13 12 9 10 8 7 7 7 7 7 8 9 10 10 12 14 16 17 17 17 17 16 17 18 17 16 17 17 15 17 19
Wind_Direction
206 246 257 312 305 319 306 297 293 294 314 272 300 298 283 229 226 228 217 210 206 178 157 129 170 139 133 155 160 142 135 127 118 106 138 187 189 199 222 285 291 301 305 314
228 235 252 287 288 266 279 282 280 294 258 290 302 304 289 234 247 243 215 197 184 167 152 124 108 115 123 124 130 136 142 121 99 86 143 169 182 214 284 308 304 309 326 332
261 295 53 271 270 254 261 270 286 297 313 276 260 274 235 234 242 238 219 180 175 171 155 133 116 116 119 114 122 136 136 119 86 47 82 145 223 281 108 82 9 326 325 331
258 266 277 268 262 269 270 276 291 301 287 293 327 291 298 221 227 221 215 205 193 169 154 136 127 118 125 122 130 141 155 180 343 17 222 212 213 125 159 141 289 319 328 328
260 222 253 265 276 279 298 296 301 298 291 292 285 243 282 202 250 242 216 208 196 177 157 139 132 127 133 138 145 157 170 228 298 276 156 113 134 112 115 331 340 326 329 341
270 285 277 276 286 289 290 277 270 262 260 258 294 321 292 310 356 320 177 193 174 166 152 139 138 138 143 143 149 153 160 219 206 147 128 132 116 98 212 274 322 326 332 329
254 258 241 283 273 240 246 257 271 265 248 283 168 287 298 332 344 305 175 176 165 157 150 145 144 144 136 146 156 153 150 143 135 130 126 113 60 19 354 360 321 342 328 321
278 292 173 120 291 315 300 306 290 299 302 312 318 280 9 19 8 334 156 158 156 154 148 143 143 140 148 155 157 151 148 144 139 140 126 30 360 341 336 325 325 327 333 328
302 275 92 269 298 281 290 252 350 301 271 250 276 297 243 167 198 208 171 170 158 154 145 132 147 150 149 153 156 157 154 151 145 141 289 305 312 312 311 323 333 327 336 322
313 290 295 303 278 231 253 329 277 261 287 289 297 280 292 166 11 189 208 195 168 156 143 143 156 152 150 148 157 155 162 175 201 242 266 279 304 319 323 313 320 324 330 328
308 270 294 243 258 285 245 245 230 300 295 291 290 304 71 10 352 337 201 202 176 161 152 155 150 158 163 165 166 182 191 223 257 263 269 286 291 316 312 299 308 317 321 323
32 302 287 287 310 296 284 291 303 288 278 261 288 286 84 62 31 30 156 180 176 167 168 155 153 161 168 175 183 207 229 246 264 265 262 276 296 318 306 296 302 310 313 320
16 259 290 284 205 216 268 295 277 283 290 270 278 265 76 86 17 37 197 177 175 176 171 170 173 180 188 200 216 232 252 266 271 268 270 279 297 315 298 292 302 304 304 313
246 260 265 285 311 312 292 290 308 293 268 273 277 320 313 47 18 9 249 188 177 171 186 194 200 204 212 226 240 255 266 272 274 270 271 281 292 299 296 288 299 297 297 303
269 270 291 294 299 299 285 276 282 262 271 273 283 278 3 351 335 321 277 124 96 197 217 213 219 226 236 248 255 265 273 275 275 278 281 288 290 293 297 294 292 296 293 295
189 284 306 294 304 290 293 332 348 353 356 313 318 66 7 17 59 34 102 143 172 222 234 237 233 237 244 262 271 273 283 297 293 279 281 286 288 294 297 298 295 294 295 293
269 319 300 284 311 301 217 16 57 62 25 355 23 17 17 43 55 40 22 27 312 251 253 258 248 249 259 278 284 311 290 282 277 279 288 297 300 298 298 299 299 297 295 295
285 284 283 300 291 277 85 77 116 85 87 96 76 49 48 54 42 41 348 204 319 347 293 205 163 154 105 342 334 305 279 278 283 285 289 296 306 303 299 297 302 299 295 293
275 275 277 292 331 118 157 164 197 206 102 159 154 167 156 152 102 314 355 42 70 70 79 89 93 88 75 34 325 299 290 287 292 297 295 294 294 295 295 286 296 294 300 293
214 249 268 230 272 300 73 101 136 185 105 180 165 195 195 193 260 83 99 76 70 63 53 58 65 75 46 300 297 322 313 304 303 303 301 300 296 290 288 284 288 296 289 287
213 237 266 221 258 149 116 144 190 241 78 159 230 122 94 77 72 85 67 53 42 38 24 32 53 64 260 281 320 309 289 288 297 314 319 314 312 305 298 296 296 293 287 284
269 258 222 260 254 210 148 180 264 80 139 141 128 110 118 111 92 81 69 58 52 53 54 71 119 276 285 298 327 328 323 321 323 329 323 325 323 325 321 314 308 299 294 291
245 278 334 269 25 116 228 224 142 168 169 159 162 156 141 122 94 86 80 67 58 60 51 57 32 360 339 337 338 339 335 334 334 334 331 332 332 322 323 311 324 323 317 308
211 207 245 253 174 229 212 189 184 189 160 145 140 135 134 117 110 96 88 76 66 58 48 43 40 30 18 4 358 350 341 336 337 333 332 330 328 325 323 320 312 301 297 294
12 168 245 249 216 189 183 168 156 139 129 124 120 116 115 118 105 98 89 79 68 58 48 40 32 21 12 1 348 342 338 335 336 334 331 331 329 328 327 323 323 326 326 306
197 262 238 275 171 222 166 170 155 154 138 151 132 112 103 107 104 96 87 86 82 65 43 26 18 7 358 358 352 349 347 347 343 343 334 333 335 331 328 325 322 317 320 321